Diretta Meteo Olbia-Costa Smeralda, Italiamartedì 25 giugno ore 23:50

Mappa
Sereno 22 °C Sereno 24 Ore: T.min 17 T.max 31
Ponente Nord Km/h 1.8 Punto di rugiada: 18 °C Umidità: 78% Visibilità: 10 Km
Il sole sorge alle: 05:49 Il sole tramonta alle: 20:59
25 Giugno 2019 23:50 tempo osservato: Sereno Sereno 22 78 1020 vento: Nord N 1.8
25 Giugno 2019 23:20 tempo osservato: Sereno Sereno 23 73 1020 vento: Nord N 1.8
25 Giugno 2019 22:50 tempo osservato: Sereno Sereno 22 78 1020 vento: Nord N 3.7
25 Giugno 2019 22:20 tempo osservato: Sereno Sereno 23 78 1020 vento: Nord N 3.7
25 Giugno 2019 21:50 tempo osservato: Sereno Sereno 24 78 1020 vento: Nord N 1.8
25 Giugno 2019 21:20 tempo osservato: Sereno Sereno 25 73 1019 vento: Nord N 5.5
25 Giugno 2019 20:50 tempo osservato: Sereno Sereno 26 69 1019 vento: Nord NE 11.1
25 Giugno 2019 20:20 tempo osservato: Sereno Sereno 27 54 1019 vento: Nord NE 13
25 Giugno 2019 19:50 tempo osservato: Sereno Sereno 28 51 1019 vento: Nord NE 11.1
25 Giugno 2019 19:20 tempo osservato: Sereno Sereno 29 48 1019 vento: Nord NE 13
25 Giugno 2019 18:50 tempo osservato: Sereno Sereno 29 51 1019 vento: Nord NE 14.8
25 Giugno 2019 18:20 tempo osservato: Sereno Sereno 30 45 1019 vento: Nord NE 20.3
25 Giugno 2019 17:50 tempo osservato: Sereno Sereno 30 45 1019 vento: Nord E/NE 16.7
25 Giugno 2019 17:20 tempo osservato: Sereno Sereno 30 45 1019 vento: Nord E/NE 18.5
25 Giugno 2019 16:50 tempo osservato: Sereno Sereno 31 43 1019 vento: Nord E/NE 16.7
25 Giugno 2019 16:20 tempo osservato: Sereno Sereno 31 43 1019 vento: Nord E/NE 16.7
25 Giugno 2019 15:50 tempo osservato: Sereno Sereno 31 43 1019 vento: Nord E/NE 16.7
25 Giugno 2019 15:20 tempo osservato: Sereno Sereno 31 40 1019 vento: Nord NE 14.8
25 Giugno 2019 14:50 tempo osservato: Sereno Sereno 31 43 1020 vento: Nord E/NE 20.3
25 Giugno 2019 14:20 tempo osservato: Sereno Sereno 31 43 1020 vento: Nord E/NE 16.7
25 Giugno 2019 13:50 tempo osservato: Sereno Sereno 31 43 1020 vento: Nord E/NE 16.7
25 Giugno 2019 13:20 tempo osservato: Sereno Sereno 30 51 1020 vento: Nord E/NE 18.5
25 Giugno 2019 12:50 tempo osservato: Sereno Sereno 31 52 1019 vento: Nord E/NE 20.3
25 Giugno 2019 12:20 tempo osservato: Sereno Sereno 30 55 1019 vento: Nord E 16.7
25 Giugno 2019 11:50 tempo osservato: Sereno Sereno 30 55 1019 vento: Nord E/NE 13
25 Giugno 2019 11:20 tempo osservato: Sereno Sereno 30 55 1019 vento: Nord E/NE 11.1
25 Giugno 2019 10:50 tempo osservato: Sereno Sereno 30 55 1019 vento: Nord E/NE 16.7
25 Giugno 2019 10:20 tempo osservato: Sereno Sereno 30 58 1019 vento: Nord E/NE 13
25 Giugno 2019 09:50 tempo osservato: Sereno Sereno 29 51 1019 vento: Nord E/NE 11.1
25 Giugno 2019 09:20 tempo osservato: Sereno Sereno 29 39 1019 vento: Nord N 3.7
25 Giugno 2019 08:50 tempo osservato: Sereno Sereno 28 45 1019 vento: Nord N 1.8
25 Giugno 2019 08:20 tempo osservato: Sereno Sereno 25 53 1019 vento: Nord N 1.8
25 Giugno 2019 07:50 tempo osservato: Sereno Sereno 22 64 1019 vento: Nord N 1.8
25 Giugno 2019 07:20 tempo osservato: Sereno Sereno 20 72 1019 vento: Nord N 1.8
25 Giugno 2019 06:50 tempo osservato: Sereno Sereno 18 82 1018 vento: Nord N 1.8
25 Giugno 2019 06:20 tempo osservato: Sereno Sereno 17 82 1018 vento: Nord N 1.8
25 Giugno 2019 05:50 tempo osservato: Sereno Sereno 17 82 1018 vento: Nord N 3.7
25 Giugno 2019 05:20 tempo osservato: Sereno Sereno 17 88 1018 vento: Nord N 0
25 Giugno 2019 04:50 tempo osservato: Sereno Sereno 17 88 1018 vento: Nord N 1.8
25 Giugno 2019 04:20 tempo osservato: Sereno Sereno 18 82 1018 vento: Nord N 1.8
25 Giugno 2019 03:50 tempo osservato: Sereno Sereno 18 82 1018 vento: Nord N 3.7
25 Giugno 2019 03:20 tempo osservato: Sereno Sereno 17 88 1018 vento: Nord N 1.8
25 Giugno 2019 02:50 tempo osservato: Sereno Sereno 18 82 1018 vento: Nord N 1.8
25 Giugno 2019 02:20 tempo osservato: Sereno Sereno 19 77 1018 vento: Nord N 5.5
25 Giugno 2019 01:50 tempo osservato: Sereno Sereno 19 82 1018 vento: Nord N 1.8
25 Giugno 2019 01:20 tempo osservato: Sereno Sereno 19 82 1018 vento: Nord N 1.8
25 Giugno 2019 00:50 tempo osservato: Sereno Sereno 20 77 1018 vento: Nord N 1.8